Weather History for Hibbing, MN

Change the Weather History Date:

Tuesday, September 10, 2013

  Actual Average Record
Temperature  
Mean Temperature 65 °F -  
Max Temperature 75 °F 66 °F 86 °F (2005)
Min Temperature 55 °F 43 °F 26 °F (1967)
Growing Degree Days 15 (Base 50)    
Moisture  
Dew Point 62 °F    
Average Humidity 83    
Maximum Humidity 100    
Minimum Humidity 59    
Precipitation  
Precipitation 0.01 in - - ()
Sea Level Pressure  
Sea Level Pressure 29.82 in    
Wind  
Wind Speed 4 mph (West)    
Max Wind Speed 9 mph    
Max Gust Speed 16 mph    
Visibility 9 miles    
Events Rain    
Averages and records for this station are not official NWS values.
T = Trace of Precipitation, MM = Missing Value Source: NWS Daily Summary

Daily Weather History Graph

Daily Weather History Graph

Search for Another Location

Airport:

Trip Planner

Search our weather history database for the weather conditions in past years. The results will help you decide how hot, cold, wet, or windy it might be!

Date:

Astronomy

Sep. 10, 2013 Rise Set
Actual Time 6:42 AM CDT 7:32 PM CDT
Civil Twilight 6:11 AM CDT 8:04 PM CDT
Nautical Twilight 5:34 AM CDT 8:41 PM CDT
Astronomical Twilight 4:55 AM CDT 9:19 PM CDT
Moon 12:33 PM CDT (9/10) 10:11 PM CDT (9/10)
Length of Visible Light 13h 52m
Length of Day
12h 50m
Waxing Crescent, 28% of the Moon is Illuminated
Sep 10
Waxing Crescent
Sep 12
First Quarter
Sep 19
Full
Sep 26
Last Quarter
Oct 4
New

Hourly Weather History & Observations

Time (CDT) Temp. Dew Point Humidity Pressure Visibility Wind Dir Wind Speed Gust Speed Precip Events Conditions
12:11 AM 66.2 °F 64.4 °F 94% 29.72 in 1.2 mi SSW 4.6 mph - N/A   Overcast
12:25 AM 66.2 °F 64.4 °F 94% 29.71 in 2.0 mi Calm Calm - N/A   Overcast
12:53 AM 66.9 °F 66.0 °F 97% 29.71 in 2.5 mi Calm Calm - N/A   Overcast
1:07 AM 66.2 °F 66.2 °F 100% 29.71 in 4.0 mi Calm Calm - N/A   Overcast
1:16 AM 68.0 °F 66.2 °F 94% 29.71 in 5.0 mi Calm Calm - N/A   Overcast
1:23 AM 68.0 °F 66.2 °F 94% 29.71 in 5.0 mi Calm Calm - N/A   Overcast
1:35 AM 68.0 °F 66.2 °F 94% 29.72 in 5.0 mi WSW 3.5 mph - N/A   Overcast
1:53 AM 68.0 °F 66.0 °F 93% 29.72 in 8.0 mi West 4.6 mph - N/A   Overcast
2:19 AM 68.0 °F 66.2 °F 94% 29.73 in 10.0 mi WNW 5.8 mph - N/A   Overcast
2:53 AM 68.0 °F 66.0 °F 93% 29.74 in 10.0 mi West 3.5 mph - N/A   Overcast
3:13 AM 68.0 °F 66.2 °F 94% 29.75 in 10.0 mi West 4.6 mph - N/A   Overcast
3:43 AM 68.0 °F 64.4 °F 88% 29.76 in 9.0 mi West 4.6 mph - 0.01 in Rain Light Rain
3:53 AM 68.0 °F 64.9 °F 90% 29.76 in 8.0 mi WNW 5.8 mph - 0.01 in Rain Light Rain
4:53 AM 66.0 °F 63.0 °F 90% 29.77 in 10.0 mi West 5.8 mph - 0.00 in   Mostly Cloudy
5:01 AM 66.2 °F 62.6 °F 88% 29.77 in 10.0 mi West 5.8 mph - N/A   Scattered Clouds
5:08 AM 66.2 °F 62.6 °F 88% 29.77 in 10.0 mi West 4.6 mph - N/A   Mostly Cloudy
5:53 AM 66.0 °F 63.0 °F 90% 29.79 in 6.0 mi WSW 4.6 mph - N/A   Overcast
6:53 AM 64.0 °F 62.1 °F 93% 29.81 in 10.0 mi West 4.6 mph - N/A   Overcast
7:21 AM 64.4 °F 60.8 °F 88% 29.83 in 10.0 mi West 8.1 mph - N/A   Mostly Cloudy
7:46 AM 64.4 °F 60.8 °F 88% 29.83 in 10.0 mi West 5.8 mph - N/A   Partly Cloudy
7:53 AM 64.0 °F 61.0 °F 90% 29.83 in 10.0 mi WNW 6.9 mph - N/A   Partly Cloudy
8:53 AM 66.0 °F 61.0 °F 84% 29.83 in 10.0 mi West 4.6 mph - N/A   Scattered Clouds
9:50 AM 68.0 °F 62.6 °F 83% 29.84 in 10.0 mi Variable 6.9 mph - N/A   Mostly Cloudy
9:53 AM 68.0 °F 62.1 °F 81% 29.83 in 10.0 mi West 5.8 mph - N/A   Mostly Cloudy
10:34 AM 69.8 °F 60.8 °F 73% 29.85 in 10.0 mi West 5.8 mph - N/A   Scattered Clouds
10:53 AM 69.1 °F 61.0 °F 75% 29.85 in 10.0 mi West 8.1 mph - N/A   Mostly Cloudy
11:53 AM 71.1 °F 60.1 °F 68% 29.86 in 10.0 mi WNW 8.1 mph - N/A   Mostly Cloudy
12:53 PM 72.0 °F 61.0 °F 68% 29.87 in 10.0 mi WSW 9.2 mph - N/A   Overcast
1:10 PM 71.6 °F 60.8 °F 69% 29.87 in 10.0 mi West 8.1 mph - N/A   Overcast
1:53 PM 73.0 °F 60.1 °F 64% 29.87 in 10.0 mi WNW 9.2 mph - N/A   Overcast
2:09 PM 73.4 °F 60.8 °F 65% 29.88 in 10.0 mi WNW 6.9 mph - N/A   Overcast
2:35 PM 71.6 °F 59.0 °F 64% 29.87 in 10.0 mi West 6.9 mph - N/A   Overcast
2:53 PM 73.9 °F 61.0 °F 64% 29.86 in 10.0 mi Variable 6.9 mph - N/A   Mostly Cloudy
3:53 PM 73.9 °F 61.0 °F 64% 29.86 in 10.0 mi WNW 4.6 mph - N/A   Mostly Cloudy
4:53 PM 73.9 °F 59.0 °F 59% 29.86 in 10.0 mi WNW 9.2 mph 16.1 mph N/A   Clear
5:53 PM 73.9 °F 59.0 °F 59% 29.87 in 10.0 mi WNW 8.1 mph - N/A   Mostly Cloudy
6:53 PM 70.0 °F 57.9 °F 65% 29.89 in 10.0 mi WNW 6.9 mph - N/A   Clear
7:53 PM 64.9 °F 57.9 °F 78% 29.91 in 10.0 mi West 4.6 mph - N/A   Clear
8:53 PM 62.1 °F 57.9 °F 86% 29.93 in 10.0 mi West 3.5 mph - N/A   Clear
9:53 PM 60.1 °F 55.9 °F 86% 29.94 in 10.0 mi West 3.5 mph - N/A   Clear
10:53 PM 57.9 °F 55.9 °F 93% 29.94 in 10.0 mi WSW 3.5 mph - N/A   Clear
11:53 PM 55.0 °F 54.0 °F 96% 29.94 in 4.0 mi Calm Calm - N/A   Clear